This is the latest recevied weather packets stored in our database for station/object WX9WTF. If no packets are shown the sender has not sent any weather packets the latest 1 day(s).
| Time | Temp. | Humidity | Pressure | Rain* | Wind** | Luminosity | Snow |
|---|---|---|---|---|---|---|---|
| 1778015298 | 8.33° C | 99% | 1012.8 hPa | 0 mm | 0 m/s | 201 W/m² | - |
| 1778014995 | 8.33° C | 99% | 1012.9 hPa | 0 mm | 0 m/s | 129 W/m² | - |
| 1778014692 | 8.33° C | 99% | 1012.6 hPa | 0 mm | 0 m/s | 198 W/m² | - |
| 1778014390 | 7.78° C | 99% | 1012.8 hPa | 0 mm | 0.89 m/s, 44° | 188 W/m² | - |
| 1778014086 | 8.33° C | 99% | 1012.7 hPa | 0 mm | 0.45 m/s, 15° | 174 W/m² | - |
| 1778013784 | 8.33° C | 99% | 1012.8 hPa | 0 mm | 0.45 m/s, 69° | 167 W/m² | - |
| 1778013481 | 8.33° C | 99% | 1012.8 hPa | 0 mm | 0.45 m/s, 73° | 85 W/m² | - |
| 1778013178 | 7.78° C | 99% | 1012.8 hPa | 0.51 mm | 0 m/s | 269 W/m² | - |
| 1778012874 | 7.78° C | 99% | 1012.7 hPa | 0.51 mm | 0.89 m/s, 19° | 224 W/m² | - |
| 1778012570 | 7.78° C | 99% | 1012.6 hPa | 1.78 mm | 0.45 m/s, 0° | 209 W/m² | - |
| 1778012267 | 7.22° C | 99% | 1012.6 hPa | 1.27 mm | 0.89 m/s, 80° | 130 W/m² | - |
| 1778011964 | 7.22° C | 99% | 1012.7 hPa | 0.51 mm | 0.45 m/s, 55° | 108 W/m² | - |
| 1778011663 | 7.22° C | 99% | 1012.6 hPa | 0.51 mm | 0 m/s | 96 W/m² | - |
| 1778011360 | 7.22° C | 99% | 1013 hPa | 0.51 mm | 0.45 m/s, 153° | 100 W/m² | - |
| 1778011055 | 7.22° C | 99% | 1012.6 hPa | 1.27 mm | 0 m/s | 107 W/m² | - |
| 1778010753 | 7.22° C | 99% | 1012.4 hPa | 1.27 mm | 0 m/s | 83 W/m² | - |
| 1778010450 | 7.22° C | 98% | 1012.2 hPa | 1.27 mm | 0.89 m/s, 76° | 64 W/m² | - |
| 1778010146 | 7.22° C | 98% | 1012.4 hPa | 0.51 mm | 0 m/s | 63 W/m² | - |
| 1778009842 | 7.22° C | 98% | 1012.9 hPa | 0 mm | 0 m/s | 71 W/m² | - |
| 1778009539 | 7.22° C | 98% | 1012.6 hPa | 0 mm | 0 m/s | 89 W/m² | - |
| 1778009238 | 7.22° C | 98% | 1012.8 hPa | 0 mm | 0 m/s | 89 W/m² | - |
| 1778008935 | 7.22° C | 98% | 1012.6 hPa | 0 mm | 0.45 m/s, 32° | 59 W/m² | - |
| 1778008633 | 7.22° C | 98% | 1012.4 hPa | 0 mm | 0 m/s | 62 W/m² | - |
| 1778008331 | 6.67° C | 98% | 1012.7 hPa | 0 mm | 0.45 m/s, 100° | 64 W/m² | - |
| 1778008028 | 6.67° C | 98% | 1012.8 hPa | 1.78 mm | 0 m/s | 66 W/m² | - |
* Rain latest hour (hover to see other rain measurements)
** Current wind speed in m/s (hover to see current wind gust speed)